Temperature
22 24 25 25 25 24 22 21 21 21 20 20 20 19 19 20 20 20 20 20 20 20 20 19 19 19 19 19 18 18 18 18 18 17 17 17 17 17 17 17 17 16 16 16
23 24 25 25 25 25 24 23 22 21 20 20 20 20 19 19 19 19 19 20 20 20 20 19 19 19 19 18 18 18 18 18 17 17 17 17 17 17 17 16 16 16 16 16
20 23 23 23 23 24 24 23 22 21 20 19 18 18 18 19 19 19 19 19 19 19 19 19 19 19 18 18 18 18 18 17 17 17 17 17 17 16 16 16 16 16 16 16
19 21 22 21 22 23 23 23 22 21 20 19 18 18 19 19 19 19 19 19 19 19 19 18 18 18 18 18 18 17 17 17 17 17 17 16 16 16 16 16 16 16 15 15
17 19 20 22 22 22 22 21 21 20 19 18 18 18 17 18 19 19 19 19 19 19 18 18 18 18 18 18 17 17 17 17 17 17 16 16 16 16 15 15 15 15 15 15
17 19 20 21 21 22 21 19 20 19 18 18 18 17 17 18 19 19 18 18 18 18 18 18 18 17 17 17 17 17 17 16 16 16 16 16 15 15 15 15 15 14 14 14
17 19 19 20 20 22 21 19 19 19 18 18 18 18 18 18 18 18 18 18 18 18 17 17 17 17 17 17 16 16 16 16 16 16 15 15 15 15 14 14 14 14 13 13
16 18 18 18 19 19 18 18 18 18 18 18 18 17 18 18 17 17 17 17 17 17 17 16 17 17 16 16 16 16 15 15 15 15 15 14 14 14 14 14 14 13 13 13
15 16 16 17 17 18 18 18 18 18 18 18 17 17 17 17 16 17 17 16 16 16 16 16 16 16 16 15 15 15 15 15 15 14 14 14 14 13 13 13 13 13 12 12
15 15 16 16 17 18 19 19 18 18 18 18 17 17 16 16 16 16 16 16 16 16 15 15 15 15 15 15 15 15 14 14 14 14 13 13 13 13 13 12 12 12 12 12
14 15 15 16 17 17 18 18 18 17 17 17 17 16 16 16 15 15 15 15 15 15 15 14 14 14 14 14 14 14 14 13 13 13 13 13 12 12 12 12 12 12 12 11
14 14 14 15 16 17 17 17 17 16 16 16 16 16 15 15 15 15 14 14 14 14 14 14 14 14 13 13 13 14 13 13 13 13 12 12 12 12 11 11 11 11 11 11
15 15 15 15 16 16 16 16 16 16 16 15 15 15 15 14 14 14 14 14 14 13 13 13 13 13 13 13 13 13 13 13 12 12 12 12 12 12 11 10 10 10 10 10
16 15 15 15 15 15 15 15 15 15 15 14 14 14 14 14 13 13 13 13 13 13 13 12 12 12 12 12 12 12 12 12 12 12 12 11 11 11 11 11 10 9 9 9
15 16 15 15 14 14 14 14 14 13 13 13 14 14 13 13 13 12 12 12 12 12 12 12 12 12 12 12 12 12 12 12 12 11 11 11 11 10 10 10 10 9 9 9
15 15 14 14 14 14 14 14 13 13 13 13 13 13 13 12 12 12 12 12 12 12 12 12 12 12 12 12 12 12 12 11 11 11 11 10 10 10 9 9 9 9 8 8
14 14 13 13 13 13 13 13 13 13 13 12 12 12 12 12 11 11 11 11 12 11 11 11 11 11 11 11 11 11 11 11 11 10 10 10 10 9 9 9 9 8 8 8
15 15 14 14 13 13 13 13 13 12 12 12 12 12 11 11 11 11 11 11 11 11 11 11 11 11 11 11 11 11 11 10 10 10 10 9 9 9 9 8 8 8 7 7
14 14 14 13 13 13 13 12 12 12 12 12 11 11 11 11 10 10 10 10 10 10 10 10 10 11 11 11 11 10 10 10 10 10 9 9 9 8 8 8 8 7 7 7
13 13 13 13 13 13 12 12 12 11 11 11 11 11 10 10 10 10 10 10 10 10 10 10 10 10 10 10 10 10 10 10 10 9 9 9 9 8 8 8 7 7 7 6
13 13 12 12 12 12 12 11 11 11 11 11 11 10 10 10 10 10 10 10 9 10 10 10 10 10 10 10 10 10 10 9 9 9 9 9 8 8 8 7 7 7 6 6
12 12 12 12 11 11 11 11 11 11 10 10 10 10 10 9 9 9 9 9 9 9 9 9 9 9 9 9 9 9 9 9 9 9 8 8 8 8 7 7 7 6 6 6
11 11 11 11 11 11 10 10 10 10 10 10 10 10 9 9 9 9 9 9 9 9 9 9 9 9 9 9 9 9 9 9 8 8 8 8 7 7 7 7 6 6 6 5
10 11 10 10 10 10 10 10 10 10 10 9 9 9 9 9 9 9 9 8 8 8 8 8 8 9 9 9 8 8 8 8 8 8 7 7 7 7 6 6 6 6 5 5
10 10 10 10 10 10 9 9 9 9 9 9 9 9 9 9 8 8 8 8 8 8 8 8 8 8 8 8 8 8 8 8 7 7 7 7 6 6 6 6 6 5 5 5
10 10 10 10 10 9 9 9 9 9 9 8 8 8 8 8 8 8 8 8 8 8 8 8 8 8 8 8 8 7 7 7 7 7 7 6 6 6 6 5 5 5 5 5
9 9 9 9 9 9 9 9 9 9 9 8 8 8 8 8 8 8 8 8 8 8 7 7 7 7 7 7 7 7 7 7 6 6 6 6 6 5 5 5 5 5 4 4
Wind_Speed
6 6 5 5 6 6 7 9 9 9 10 11 9 10 9 8 10 11 9 8 8 6 5 4 3 2 3 4 4 5 5 4 4 3 3 3 3 3 3 3 3 3 3 3
2 2 1 1 3 5 6 6 7 8 5 5 7 7 8 7 10 10 9 8 8 6 5 4 4 3 3 3 4 5 5 4 4 4 4 4 3 4 4 5 5 5 5 4
2 2 3 2 4 5 5 5 9 9 8 11 10 10 9 9 9 9 8 7 7 6 4 4 4 4 4 4 4 5 5 5 5 5 5 4 5 5 6 5 6 6 5 6
2 2 4 8 4 3 5 2 5 8 12 14 13 10 7 7 9 8 7 7 6 5 4 4 4 4 4 4 5 5 5 4 5 6 6 5 6 6 6 6 6 6 6 6
4 3 3 5 2 2 4 1 2 11 14 14 14 11 6 5 8 8 5 4 5 5 5 5 5 5 6 5 5 5 5 5 5 6 7 7 7 7 6 7 7 7 7 7
4 4 5 6 4 1 7 1 1 9 16 16 11 7 5 7 9 9 8 5 5 6 7 6 5 6 7 6 6 5 5 6 6 6 7 8 7 7 6 7 7 7 8 8
4 3 5 5 5 2 5 6 4 8 12 10 6 7 9 9 9 9 9 8 7 8 7 5 5 7 8 7 6 5 6 8 8 7 8 8 8 7 8 8 9 9 9 9
4 4 6 5 3 3 4 3 7 8 8 9 11 13 12 11 10 10 10 9 9 8 7 6 6 8 9 7 6 6 8 9 9 8 7 8 8 8 8 8 9 8 9 9
4 4 3 2 2 2 5 8 7 8 9 13 14 13 12 11 10 9 10 10 9 9 9 8 7 8 9 6 6 8 10 10 9 10 9 8 8 8 7 7 7 6 7 7
2 1 2 5 6 6 6 8 9 12 12 13 14 14 14 12 11 10 9 9 9 10 10 8 7 7 7 6 8 10 11 10 9 10 10 10 8 7 7 6 6 6 6 6
2 2 4 6 6 7 8 10 12 11 11 12 15 15 14 12 11 9 9 8 8 9 9 8 6 7 6 6 9 11 11 10 10 9 10 10 10 8 7 5 4 6 6 5
4 4 3 1 2 7 10 10 12 13 11 10 12 14 13 12 10 10 10 9 9 9 9 8 7 7 6 6 8 11 10 9 8 8 8 8 10 10 15 12 14 14 11 9
4 3 4 4 5 8 9 11 12 12 13 12 11 13 13 11 10 10 10 10 10 9 8 7 7 7 5 6 8 9 10 8 7 7 7 7 7 9 9 10 15 15 14 13
7 7 5 4 7 9 12 13 12 12 11 11 12 13 13 12 11 11 10 9 9 9 8 8 8 7 5 6 9 9 9 9 9 7 7 7 7 7 7 8 7 6 8 11
4 6 7 8 9 11 12 14 13 11 12 11 11 13 13 13 12 10 9 9 10 10 9 8 8 6 5 7 9 9 8 7 7 7 6 6 6 7 7 7 7 5 4 6
6 9 11 12 12 12 13 14 13 12 11 12 12 12 12 13 12 10 9 8 10 9 7 7 7 5 6 7 8 7 7 11 10 8 7 7 6 7 6 6 6 5 4 3
9 9 11 13 12 11 11 11 12 12 11 12 12 13 13 13 12 11 9 8 8 8 7 7 6 5 6 7 7 6 7 9 11 8 6 6 6 6 6 6 6 5 4 4
8 9 10 13 13 13 12 12 12 12 11 12 13 12 12 12 11 10 9 9 9 9 7 5 5 6 7 7 7 6 6 6 6 6 6 6 6 6 6 6 7 7 5 5
9 11 12 12 12 13 12 12 12 11 11 12 13 12 11 10 9 9 9 9 9 7 4 4 8 7 6 6 7 6 6 7 6 6 6 8 8 6 6 6 6 5 5 5
10 12 13 12 12 12 13 12 13 12 11 12 13 13 11 10 9 10 9 8 5 3 3 5 6 6 5 5 7 6 7 7 7 6 6 6 6 6 6 6 6 5 5 5
11 12 13 13 12 11 12 12 13 13 11 11 12 12 11 10 9 9 9 7 3 4 6 8 6 5 5 6 8 6 7 7 7 6 6 6 6 6 6 6 5 5 5 4
10 12 13 13 13 11 10 11 12 13 13 12 12 12 12 11 10 9 7 5 4 7 6 5 5 7 8 9 6 6 7 7 6 6 6 6 6 6 6 6 5 5 4 4
10 11 12 12 13 12 12 11 11 12 12 12 11 11 10 8 7 8 6 3 4 8 6 5 8 11 11 7 6 6 7 7 7 6 6 5 5 5 5 5 4 4 4 4
11 11 11 12 12 13 13 11 10 10 10 9 9 10 10 8 6 5 5 7 8 9 6 7 11 11 10 6 6 6 6 6 6 6 6 5 5 4 4 4 4 3 4 4
11 11 12 13 12 11 11 12 12 11 10 9 9 8 7 7 7 5 5 6 9 9 6 8 11 10 7 5 6 6 6 5 6 6 6 5 5 4 4 4 4 4 3 4
9 9 9 9 9 9 9 9 9 8 9 9 7 7 7 6 7 6 5 6 7 8 5 4 5 6 5 5 5 5 5 6 6 5 5 5 5 5 4 4 5 4 3 4
9 8 8 8 7 7 8 8 9 8 8 9 9 7 7 7 6 6 6 5 5 5 4 4 4 4 5 5 5 5 5 5 5 5 4 4 4 4 4 5 4 5 5 6
Wind_Direction
200 200 177 196 203 185 175 180 179 201 188 199 185 158 141 130 123 120 119 116 115 115 114 118 114 116 125 129 141 140 142 150 157 160 145 128 125 129 124 115 112 109 104 104
254 236 150 234 239 202 188 171 159 152 193 183 138 125 119 126 129 130 131 126 124 122 124 128 126 130 119 119 131 135 142 142 135 128 122 118 114 109 101 95 88 88 85 88
240 308 65 279 249 216 200 177 159 178 188 150 141 142 147 146 139 135 140 138 134 133 136 136 139 143 140 135 127 127 129 128 125 121 112 108 105 101 98 95 90 85 84 86
140 89 203 239 252 177 162 165 158 148 151 153 144 132 125 134 131 132 142 142 137 132 129 127 129 134 127 119 120 124 123 120 122 120 113 104 101 97 87 84 86 83 81 82
126 167 257 286 314 102 121 4 129 140 141 133 125 101 87 119 127 130 137 138 129 124 117 110 114 117 111 109 108 116 124 124 123 125 119 111 105 101 96 93 84 77 77 76
126 152 213 246 279 252 107 76 191 145 149 149 138 133 167 151 129 121 117 112 109 106 96 100 108 107 101 99 101 106 115 118 114 115 116 112 109 102 95 92 89 84 75 67
150 181 247 269 292 58 135 205 173 147 149 150 149 152 147 134 118 116 114 108 103 98 91 93 101 103 101 97 97 97 100 102 99 100 105 107 102 96 95 93 91 85 80 69
146 169 240 313 24 133 180 148 137 134 135 123 117 119 123 121 117 114 110 105 104 100 90 82 87 98 98 96 97 92 91 95 94 91 97 100 99 95 94 99 96 90 85 75
178 197 246 355 107 137 127 124 125 126 130 127 123 124 123 119 116 113 110 107 105 103 94 81 78 93 101 101 102 98 91 91 92 85 78 82 91 95 92 91 95 93 90 85
77 53 50 62 73 70 84 111 119 125 132 132 128 128 123 119 115 111 106 104 102 102 96 86 77 81 95 102 104 103 99 95 91 88 80 69 68 73 85 87 94 95 93 90
79 97 50 44 71 88 91 99 108 112 119 130 127 126 125 122 120 116 110 103 101 102 101 95 87 85 92 102 109 107 103 100 95 92 93 85 74 61 67 56 86 105 101 99
196 199 152 182 110 101 102 109 119 119 107 108 118 120 120 120 117 114 111 108 104 100 100 97 94 87 84 95 110 113 110 107 106 104 100 101 99 80 56 63 69 76 88 97
171 152 131 131 113 104 104 111 116 117 119 116 110 112 113 112 110 108 107 108 108 107 106 102 96 89 88 99 107 112 118 117 114 113 112 110 108 108 97 67 62 65 70 77
131 120 109 116 119 110 110 107 106 107 107 112 114 110 110 107 104 104 105 106 105 104 100 99 95 89 89 104 108 110 114 118 119 117 117 115 112 110 111 112 99 69 55 68
123 127 133 125 113 111 114 111 109 111 112 107 106 108 110 108 107 106 104 103 102 98 95 94 91 84 81 98 107 110 112 114 113 112 111 114 115 110 106 104 103 97 80 62
118 118 123 127 124 121 120 120 120 118 115 113 111 110 111 111 110 105 99 101 104 102 99 96 93 94 95 98 100 102 107 115 116 115 111 108 110 112 110 107 104 97 88 80
131 135 134 135 133 128 124 124 123 120 117 117 118 117 116 113 108 104 99 94 95 93 91 93 94 94 96 98 101 105 108 115 113 110 110 115 113 111 111 109 105 98 90 94
142 140 140 141 138 130 124 121 120 119 122 123 120 119 118 118 117 114 107 98 89 78 68 74 87 92 93 96 101 105 108 110 110 111 112 112 112 109 108 110 111 108 97 93
114 118 120 124 129 128 126 123 121 120 122 123 122 119 116 115 115 111 106 99 96 88 65 71 86 87 90 96 103 105 108 109 109 108 109 110 107 107 110 111 109 106 105 99
109 113 113 116 120 123 124 124 122 120 121 123 121 118 115 113 111 107 99 92 91 111 106 89 85 83 85 97 104 107 109 111 111 109 106 108 110 110 111 112 111 109 107 107
117 116 115 114 116 119 122 125 126 124 122 122 123 123 121 116 112 108 104 95 68 82 87 84 82 81 84 95 97 102 105 107 108 109 112 113 112 113 114 114 114 115 114 113
119 120 118 118 117 117 117 120 122 122 121 119 118 119 117 114 108 97 89 102 102 92 85 76 79 84 93 93 92 101 105 106 107 108 111 114 116 118 120 120 120 119 119 122
118 119 119 121 121 119 113 114 118 122 123 124 125 124 121 119 118 117 108 94 94 91 88 84 90 87 88 86 88 96 103 106 109 112 114 115 118 121 123 123 123 125 126 128
115 115 118 118 116 114 114 114 112 113 114 113 114 118 118 113 98 92 115 112 105 97 91 92 87 83 84 84 89 93 97 100 104 105 105 104 104 108 116 121 124 131 132 127
117 117 118 120 119 121 121 119 113 110 108 106 105 106 109 116 122 124 114 109 106 96 90 87 86 84 81 85 91 94 97 103 109 111 107 106 106 106 108 112 117 121 126 130
118 118 117 119 125 127 126 123 122 121 119 116 111 111 109 109 113 112 108 106 103 99 91 82 83 86 87 89 93 94 93 97 99 101 106 110 111 111 110 109 107 117 128 131
113 115 116 114 115 121 124 125 126 126 126 125 121 119 118 116 113 112 109 104 100 97 93 86 89 96 97 97 94 93 94 95 98 102 104 104 108 113 123 122 122 122 123 124
Height
1455 1450 1450 1452 1454 1456 1466 1474 1484 1483 1482 1478 1475 1476 1478 1481 1482 1485 1488 1490 1492 1494 1496 1498 1499 1500 1500 1501 1502 1503 1504 1505 1505 1506 1506 1506 1506 1506 1507 1508 1508 1508 1508 1509
1453 1447 1447 1452 1451 1452 1457 1461 1468 1473 1477 1471 1474 1475 1478 1481 1482 1485 1487 1489 1491 1494 1496 1497 1498 1499 1499 1501 1502 1503 1504 1505 1505 1506 1506 1506 1506 1506 1506 1507 1507 1507 1508 1508
1466 1453 1453 1464 1454 1452 1453 1454 1460 1470 1470 1470 1474 1475 1477 1480 1482 1483 1486 1488 1490 1492 1494 1496 1498 1499 1499 1500 1502 1503 1504 1505 1505 1506 1506 1506 1506 1506 1506 1507 1507 1507 1508 1509
1468 1463 1475 1463 1446 1445 1449 1452 1452 1456 1461 1465 1469 1473 1477 1480 1482 1484 1487 1488 1490 1492 1494 1495 1497 1498 1499 1500 1501 1502 1503 1505 1506 1506 1506 1506 1507 1507 1507 1507 1508 1508 1509 1509
1473 1474 1469 1455 1447 1447 1452 1458 1452 1456 1461 1466 1470 1474 1480 1481 1482 1483 1486 1488 1490 1492 1493 1495 1497 1497 1498 1499 1501 1502 1503 1505 1506 1506 1507 1507 1507 1508 1508 1509 1509 1510 1510 1511
1470 1473 1476 1459 1446 1443 1449 1463 1455 1454 1459 1463 1467 1477 1481 1480 1480 1482 1485 1489 1491 1492 1493 1495 1497 1498 1498 1499 1501 1502 1504 1505 1506 1507 1507 1508 1508 1509 1510 1510 1510 1511 1512 1512
1468 1470 1465 1451 1445 1444 1462 1463 1455 1456 1458 1461 1464 1469 1475 1479 1481 1483 1485 1488 1490 1492 1493 1495 1497 1498 1499 1500 1501 1502 1504 1505 1506 1507 1508 1508 1509 1510 1510 1511 1512 1513 1513 1513
1465 1470 1468 1449 1447 1451 1454 1451 1453 1457 1459 1461 1464 1469 1474 1478 1481 1483 1485 1488 1490 1492 1493 1495 1497 1498 1499 1500 1502 1503 1504 1505 1506 1507 1508 1510 1510 1511 1512 1513 1513 1514 1515 1515
1460 1462 1454 1449 1449 1449 1448 1450 1453 1457 1460 1462 1465 1470 1475 1479 1482 1485 1487 1489 1491 1493 1494 1496 1498 1499 1500 1501 1503 1504 1505 1506 1507 1508 1509 1510 1512 1513 1514 1515 1515 1516 1517 1517
1458 1456 1453 1451 1451 1451 1451 1451 1454 1457 1461 1464 1467 1471 1475 1480 1483 1487 1489 1490 1492 1494 1495 1497 1499 1501 1501 1502 1503 1504 1505 1506 1508 1509 1510 1512 1513 1515 1516 1517 1518 1518 1519 1520
1458 1456 1455 1454 1453 1454 1454 1455 1457 1460 1462 1465 1467 1471 1476 1480 1484 1487 1490 1492 1494 1495 1496 1499 1501 1502 1503 1504 1505 1505 1506 1508 1509 1511 1512 1514 1515 1517 1518 1519 1521 1521 1522 1523
1458 1456 1457 1457 1455 1455 1455 1456 1459 1461 1465 1469 1470 1473 1477 1481 1485 1489 1491 1494 1496 1497 1498 1500 1502 1503 1504 1505 1506 1507 1508 1509 1511 1513 1515 1516 1517 1519 1521 1522 1523 1524 1525 1525
1451 1453 1455 1457 1457 1457 1457 1458 1461 1464 1467 1471 1474 1477 1480 1483 1487 1490 1493 1495 1497 1499 1500 1502 1503 1504 1506 1507 1508 1509 1510 1511 1513 1515 1517 1518 1520 1521 1522 1525 1526 1527 1528 1529
1450 1452 1455 1457 1458 1458 1459 1461 1465 1468 1471 1474 1476 1479 1482 1486 1490 1492 1494 1497 1499 1501 1502 1504 1505 1506 1507 1509 1510 1511 1512 1514 1515 1517 1519 1521 1522 1523 1525 1526 1528 1529 1531 1531
1451 1452 1455 1458 1459 1461 1463 1465 1468 1472 1474 1477 1479 1482 1485 1488 1492 1495 1497 1500 1502 1503 1504 1506 1507 1508 1509 1510 1511 1512 1514 1515 1517 1519 1521 1523 1525 1526 1528 1529 1530 1532 1533 1534
1452 1454 1456 1459 1461 1463 1465 1467 1470 1473 1475 1478 1482 1485 1489 1492 1495 1498 1500 1502 1504 1505 1507 1508 1509 1511 1512 1513 1514 1515 1517 1518 1520 1522 1524 1525 1527 1528 1530 1532 1533 1534 1535 1536
1452 1455 1457 1460 1462 1465 1466 1468 1471 1474 1478 1481 1485 1488 1492 1495 1498 1500 1503 1505 1507 1508 1510 1511 1512 1513 1514 1516 1517 1518 1519 1521 1523 1525 1526 1528 1529 1531 1532 1534 1535 1536 1537 1538
1452 1454 1457 1460 1463 1465 1468 1471 1474 1478 1482 1485 1488 1492 1494 1497 1500 1502 1505 1507 1509 1511 1513 1514 1515 1516 1517 1519 1520 1521 1522 1524 1525 1527 1529 1530 1532 1533 1534 1536 1537 1538 1539 1540
1454 1456 1459 1462 1466 1468 1470 1473 1477 1481 1485 1488 1491 1494 1497 1500 1503 1505 1507 1510 1512 1513 1516 1517 1518 1519 1520 1522 1523 1524 1525 1527 1528 1530 1531 1532 1534 1535 1537 1538 1539 1540 1541 1541
1456 1458 1461 1464 1468 1471 1473 1477 1481 1484 1488 1491 1494 1497 1500 1503 1506 1508 1510 1512 1514 1516 1518 1519 1520 1521 1523 1524 1525 1527 1528 1529 1531 1532 1533 1535 1536 1538 1539 1540 1541 1542 1542 1543
1457 1460 1463 1466 1470 1473 1477 1480 1483 1487 1491 1494 1496 1499 1502 1505 1508 1510 1512 1514 1517 1519 1520 1521 1522 1523 1525 1526 1528 1529 1530 1532 1533 1534 1535 1536 1538 1539 1540 1541 1542 1543 1543 1544
1459 1462 1465 1468 1472 1476 1479 1483 1486 1489 1493 1496 1499 1502 1505 1508 1510 1513 1515 1517 1519 1521 1522 1523 1524 1526 1527 1528 1530 1531 1532 1533 1535 1536 1537 1538 1539 1540 1541 1542 1543 1544 1544 1544
1462 1464 1467 1471 1474 1477 1482 1486 1489 1492 1495 1498 1501 1504 1507 1510 1512 1514 1517 1519 1521 1523 1524 1525 1527 1528 1529 1530 1532 1533 1534 1535 1536 1537 1539 1540 1541 1542 1542 1543 1544 1544 1544 1545
1464 1467 1471 1474 1478 1481 1485 1489 1492 1495 1498 1501 1504 1507 1509 1512 1515 1517 1519 1521 1523 1525 1526 1528 1529 1530 1531 1532 1534 1535 1536 1537 1538 1539 1540 1541 1542 1543 1543 1544 1544 1544 1545 1545
1468 1471 1474 1478 1481 1485 1488 1492 1495 1499 1502 1504 1507 1510 1513 1515 1517 1520 1522 1524 1526 1527 1528 1530 1531 1532 1533 1534 1536 1537 1538 1539 1540 1540 1541 1542 1543 1543 1544 1544 1544 1544 1544 1544
1472 1475 1478 1481 1485 1488 1491 1495 1498 1501 1504 1507 1511 1514 1516 1519 1521 1523 1525 1527 1528 1530 1531 1532 1533 1534 1535 1537 1538 1538 1539 1540 1541 1541 1542 1542 1543 1543 1544 1544 1544 1544 1544 1544
1476 1479 1482 1485 1489 1492 1495 1498 1501 1504 1507 1510 1513 1517 1519 1521 1524 1526 1527 1529 1531 1532 1533 1534 1536 1537 1538 1539 1539 1540 1541 1541 1542 1542 1543 1543 1543 1543 1543 1544 1544 1544 1543 1543